Home > Weather > Landshut > Past weeks

Flag for Germany Weather for the Past 2 Weeks in Landshut, Bavaria, Germany

Now
34 °F

Light snow. Broken clouds.


Feels Like: 27 °F
Forecast: 33 / 39 °F
Wind: 8 mph from West

Location: Munich / Franz Josef Strauss Airport

Current Time: Feb 10, 2016 at 10:26:44 AM

Latest Report: Feb 10, 2016 at 9:50 AM


Visibility: N/A

Pressure: 29.45 "Hg

Humidity: 100%

Dew point: 34 °F

Location of LandshutLocation

Historic Weather in Landshut — Graph

°F

Landshut Temperature Yesterday

Maximum temperature yesterday: 52 °F (at 11:50 AM)
Minimum temperature yesterday: 41 °F (at 7:50 AM)
Average temperature yesterday: 46 °F

High & Low Weather Summary for the Past Weeks

 TemperatureHumidityPressure
High57 °F (Jan 26, 2:50 PM)100% (Jan 27, 12:20 AM)30.45 "Hg (Jan 27, 12:20 AM)
Low27 °F (Feb 6, 3:50 AM)47% (Jan 28, 11:20 AM)29.24 "Hg (Feb 9, 7:50 PM)
Average43 °F82%30.06 "Hg
* Reported Jan 26 8:20 AM — Feb 10 8:50 AM, Landshut, Weather by CustomWeather, © 2016

Note: Actual official high and low records may vary slightly from our data, if they occured in-between our weather recording intervals... More about our weather records

Advertising

Landshut Weather History for the Previous 24 Hours

 ConditionsComfort  
Time TempWeatherWind HumidityBarometerVisibility
8:50 AM
Wed, Feb 10
32 °FSnow. Low clouds.5 mph100%29.45 "Hg1 mi
8:20 AM32 °FLight snow. Partly sunny.8 mph100%29.42 "Hg2 mi
7:50 AM34 °FSnow showers. Broken clouds.9 mph100%29.42 "Hg1 mi
7:20 AM34 °FSnow showers. Passing clouds.9 mph100%29.42 "Hg2 mi
6:50 AM34 °FLight snow. Passing clouds.13 mph100%29.39 "Hg4 mi
6:20 AM36 °FLight snow. Passing clouds.17 mph87%29.39 "Hg6 mi
5:50 AM36 °FLight snow. Passing clouds.17 mph81%29.39 "Hg5 mi
5:20 AM37 °FSnow flurries. Partly cloudy.20 mph70%29.39 "HgN/A
4:20 AM37 °FPassing clouds.29 mph70%29.36 "HgN/A
3:50 AM37 °FPartly cloudy.28 mph70%29.36 "HgN/A
3:20 AM37 °FPartly cloudy.24 mph70%29.36 "HgN/A
2:20 AM39 °FPartly cloudy.18 mph75%29.36 "HgN/A
1:20 AM41 °FSprinkles. Partly cloudy.9 mph81%29.33 "HgN/A
12:20 AM43 °FPartly cloudy.13 mph66%29.33 "HgN/A
11:50 PM
Tue, Feb 9
43 °FPartly cloudy.23 mph66%29.33 "HgN/A
11:20 PM43 °FPartly cloudy.25 mph66%29.33 "HgN/A
10:20 PM45 °FSprinkles. Partly cloudy.32 mph66%29.30 "HgN/A
9:50 PM46 °FSprinkles. Partly cloudy.35 mph76%29.30 "HgN/A
9:20 PM50 °FPartly cloudy.14 mph62%29.24 "HgN/A
8:50 PM50 °FPartly cloudy.9 mph62%29.24 "HgN/A
8:20 PM48 °FClear.12 mph71%29.24 "Hg10 mi
7:50 PM46 °FClear.7 mph82%29.24 "Hg10 mi
7:20 PM45 °FPassing clouds.6 mph87%29.27 "HgN/A
6:50 PM45 °FPassing clouds.3 mph87%29.27 "HgN/A
6:20 PM48 °FClear.2 mph76%29.27 "Hg10 mi
5:50 PM48 °FClear.1 mph76%29.27 "Hg10 mi
4:50 PM50 °FPartly sunny.6 mph71%29.27 "HgN/A
4:20 PM50 °FSunny.7 mph71%29.30 "Hg10 mi
3:20 PM52 °FSunny.8 mph67%29.33 "Hg10 mi
2:50 PM50 °FSunny.10 mph71%29.36 "Hg10 mi
2:20 PM52 °FSunny.13 mph67%29.39 "Hg10 mi
1:50 PM52 °FSunny.12 mph67%29.42 "Hg10 mi
1:20 PM52 °FSunny.14 mph67%29.45 "Hg10 mi
12:50 PM52 °FPassing clouds.6 mph58%29.47 "HgN/A
12:20 PM52 °FPassing clouds.8 mph58%29.53 "HgN/A
11:50 AM52 °FPassing clouds.8 mph62%29.56 "HgN/A
11:20 AM50 °FSunny.10 mph67%29.59 "Hg10 mi
10:50 AM48 °FSunny.9 mph76%29.62 "Hg10 mi
10:20 AM46 °FSunny.9 mph76%29.62 "Hg10 mi
Weather by CustomWeather, © 2016

See weather overviewHow to use our weather pages